Search your local weather  

 

Hazardous Weather Conditions

No active alerts for PHOENIX, ARIZONA

Current Conditions: PHOENIX, ARIZONA

Fair


52.0 F

Last Updated on Jan 19 2022, 8:53 pm MST
Humidity: 72%
Wind Speed: N 0.0 mph
Barometer 30.10 in
Dewpoint: 43.0 F
Visibility: 10.00 mi
Precip: --
Heat Index: NA
Wind Chill: NA
Current conditions at:

Phoenix, Phoenix-Deer Valley Municipal Airport, AZ (KDVT)

Lat: 33.69026 Lon: -112.06618

Local Radar Image active severe weather and emergency alerts image image weather storm and storm spotter reports image weather observation monitoring service image
Local
Radar
Active
Alerts
Storm Reports Weather
Monitoring

5 Day Forecast for PHOENIX, ARIZONA (85001)

Wednesday

Mostly Sunny

High 69 °F
Wednesday
Night
Mostly Clear

Low 47 °F
Thursday

Mostly Sunny

High 72 °F
Thursday
Night
Mostly Clear

Low 44 °F
Friday

Mostly Sunny

High 69 °F
Friday
Night
Partly Cloudy

Low 47 °F
Saturday

Partly Sunny

High 68 °F
Saturday
Night
Mostly Clear

Low 46 °F
Sunday

Mostly Sunny

High 70 °F

Sign-up For Email & Text Message Weather Alert Notification Services



Advertise Here

Observation History for PHOENIX, ARIZONA


Time Wind
(mph)
Vis
(mi)
Weather Precip (in) Temperature (F) Relative
Humidity
Wind
Chill
(F)
Heat
Index
(F)
Pressure
Air Dwpt altimeter
(in)
sea level
(mb)
8:53 pm MST N 0.0 10.00 Fair -- 52.0 43.0 72% NA NA 30.10 1018.4
7:53 pm MST N 0.0 10.00 Fair -- 56.0 42.1 60% NA NA 30.09 1018.1
6:53 pm MST N 0.0 10.00 Partly Cloudy -- 60.0 41.0 50% NA NA 30.08 1017.6
5:53 pm MST SW 4.6 10.00 Fair -- 63.0 39.0 41% 64 NA 30.05 1016.7
4:53 pm MST W 5.8 10.00 Fair -- 65.0 39.0 39% NA NA 30.05 1016.4
3:53 pm MST W 6.9 10.00 Fair -- 66.0 39.0 37% NA NA 30.04 1016.2
2:53 pm MST 10.00 Fair -- 66.0 39.9 39% NA NA 30.05 1016.3
1:53 pm MST W 6.9 10.00 Fair -- 65.0 41.0 42% NA NA 30.05 1016.6
12:53 pm MST 3.5 10.00 Fair -- 63.0 41.0 45% NA NA 30.08 1017.6
11:53 am MST S 5.8 10.00 Fair -- 62.0 41.0 46% 62 NA 30.11 1018.6
10:53 am MST 3.5 10.00 Fair -- 61.0 42.1 50% NA NA 30.12 1019.1
9:53 am MST N 0.0 10.00 A Few Clouds -- 57.0 42.1 58% NA NA 30.12 1019.0
8:53 am MST SE 3.5 10.00 Overcast -- 52.0 44.1 75% NA NA 30.10 1018.5
7:53 am MST SE 3.5 10.00 Overcast -- 49.0 44.1 83% NA NA 30.08 1017.7
6:53 am MST N 0.0 10.00 Partly Cloudy -- 49.0 43.0 80% NA NA 30.06 1017.0
5:53 am MST SE 3.5 10.00 Overcast -- 50.0 44.1 80% NA NA 30.04 1016.4
4:53 am MST N 0.0 10.00 Mostly Cloudy -- 50.0 43.0 77% NA NA 30.04 1016.2
3:53 am MST N 0.0 10.00 Partly Cloudy -- 52.0 43.0 72% NA NA 30.04 1016.0
2:53 am MST N 0.0 10.00 Overcast -- 54.0 43.0 67% NA NA 30.04 1015.9
1:53 am MST NE 6.9 10.00 Overcast -- 53.0 43.0 69% 51 NA 30.04 1016.1
12:53 am MST NE 3.5 10.00 Overcast -- 53.0 43.0 69% NA NA 30.03 1015.9
11:53 pm MST 10.00 Mostly Cloudy -- 53.0 43.0 69% NA NA 30.03 1015.9
10:53 pm MST N 0.0 10.00 A Few Clouds -- 54.0 42.1 64% NA NA 30.03 1015.9
9:53 pm MST 10.00 Fair -- 53.0 43.0 69% NA NA 30.01 1015.4

Regional Weather Observation

Glendale, Glendale Municipal Airport, AZ (KGEU)

A Few Clouds
61.0 F

Luke Air Force Base / Phoenix, AZ (KLUF)

Fair
59.0 F

Phoenix, Phoenix Sky Harbor International Airport, AZ (KPHX)

A Few Clouds
60.0 F

Goodyear Municipal, AZ (KGYR)

A Few Clouds
59.0 F

Buckeye Municipal Airport, AZ (KBXK)

NULL
54.0 F

Scottsdale Airport, AZ (KSDL)

Fair
56.0 F

Advertise Here


Advertise Here